This demonstration page uses our WeatherBlox Daily Observations layout. Learn more.

Hourly Observations for May 9, 2019

Temp ( °F °C ) Dew Point ( °F °C ) Humidity (%) Winds ( mph kmh ) Pressure ( in mb ) Visibility ( mi km ) Precip ( " mm )
12:15 am 00:15 Cloudy 63 17 59 15 88 88 E 5 7 30.21 1023 10 16.09344 0 0
12:35 am 00:35 Cloudy 63 17 59 15 88 88 E 6 9 30.21 1023 10 16.09344 0 0
12:55 am 00:55 Cloudy 63 17 59 15 88 88 ESE 7 11 30.21 1023 10 16.09344 0 0
1:15 am 01:15 Cloudy 61 16 59 15 94 94 E 8 13 30.21 1023 10 16.09344 0 0
1:35 am 01:35 Cloudy 61 16 59 15 94 94 ESE 6 9 30.21 1023 10 16.09344 0 0
1:55 am 01:55 Cloudy 61 16 59 15 94 94 E 5 7 30.24 1024 10 16.09344 0 0
2:15 am 02:15 Cloudy 61 16 57 14 88 88 ESE 5 7 30.21 1023 10 16.09344 0 0
2:35 am 02:35 Cloudy 61 16 57 14 88 88 ESE 5 7 30.21 1023 10 16.09344 0 0
2:55 am 02:55 Cloudy 61 16 57 14 88 88 ESE 8 13 30.21 1023 10 16.09344 0 0
3:15 am 03:15 Cloudy 61 16 57 14 88 88 Calm 30.21 1023 10 16.09344 0 0
3:35 am 03:35 Cloudy 61 16 57 14 88 88 ESE 3 6 30.21 1023 10 16.09344 0 0
3:55 am 03:55 Cloudy 61 16 57 14 88 88 SE 8 13 30.21 1023 10 16.09344 0 0
4:15 am 04:15 Cloudy 61 16 57 14 88 88 ESE 6 9 30.21 1023 10 16.09344 0 0
4:35 am 04:35 Cloudy 61 16 57 14 88 88 ESE 6 9 30.18 1022 10 16.09344 0 0
4:55 am 04:55 Cloudy 61 16 57 14 88 88 ESE 5 7 30.18 1022 10 16.09344 0 0
5:15 am 05:15 Cloudy 59 15 57 14 94 94 ESE 3 6 30.21 1023 10 16.09344 0 0
5:35 am 05:35 Cloudy 59 15 57 14 94 94 ESE 5 7 30.21 1023 10 16.09344 0 0
5:55 am 05:55 Cloudy 59 15 57 14 94 94 ESE 3 6 30.21 1023 10 16.09344 0 0
6:15 am 06:15 Cloudy 59 15 57 14 94 94 ESE 6 9 30.21 1023 10 16.09344 0 0
6:35 am 06:35 Cloudy 59 15 57 14 94 94 E 3 6 30.21 1023 7 11.265408 0 0
6:55 am 06:55 Cloudy 59 15 59 15 100 100 E 7 11 30.21 1023 7 11.265408 0 0
7:15 am 07:15 Cloudy 57 14 57 14 100 100 ESE 7 11 30.21 1023 2.5 4.02336 0 0
7:35 am 07:35 Cloudy 57 14 57 14 100 100 Calm 30.21 1023 2 3.218688 0 0
7:55 am 07:55 Cloudy 57 14 57 14 100 100 ENE 3 6 30.21 1023 5 8.04672 0 0
8:15 am 08:15 Cloudy 59 15 59 15 100 100 ENE 6 9 30.21 1023 7 11.265408 0 0
8:35 am 08:35 Cloudy 59 15 59 15 100 100 ENE 5 7 30.21 1023 10 16.09344 0 0
8:55 am 08:55 Cloudy 59 15 59 15 100 100 ESE 6 9 30.21 1023 10 16.09344 0 0
9:15 am 09:15 Cloudy 59 15 59 15 100 100 ESE 6 9 30.21 1023 7 11.265408 0 0
9:35 am 09:35 Cloudy 59 15 59 15 100 100 ESE 3 6 30.21 1023 7 11.265408 0 0
9:55 am 09:55 Cloudy 59 15 59 15 100 100 ESE 7 11 30.18 1022 7 11.265408 0 0
10:15 am 10:15 Cloudy 59 15 59 15 100 100 E 7 11 30.18 1022 5 8.04672 0 0
10:35 am 10:35 Cloudy 61 16 59 15 94 94 ESE 3 6 30.18 1022 5 8.04672 0 0
10:55 am 10:55 Cloudy 61 16 61 16 100 100 ESE 5 7 30.18 1022 5 8.04672 0 0
11:15 am 11:15 Cloudy 61 16 61 16 100 100 NE 3 6 30.18 1022 5 8.04672 0 0
11:35 am 11:35 Cloudy 61 16 61 16 100 100 ESE 7 11 30.18 1022 5 8.04672 0 0
11:55 am 11:55 Cloudy 63 17 61 16 94 94 SE 7 11 30.18 1022 5 8.04672 0 0
12:15 pm 12:15 Cloudy 63 17 61 16 94 94 SE 3 6 30.18 1022 7 11.265408 0 0
12:35 pm 12:35 Cloudy 64 18 63 17 94 94 Calm 30.18 1022 7 11.265408 0 0
12:55 pm 12:55 Cloudy 64 18 63 17 94 94 ESE 6 9 30.18 1022 10 16.09344 0 0
1:15 pm 13:15 Cloudy 66 19 63 17 88 88 ESE 3 6 30.18 1022 10 16.09344 0 0
1:35 pm 13:35 Cloudy 66 19 63 17 88 88 ESE 3 6 30.18 1022 10 16.09344 0 0
2:15 pm 14:15 Cloudy 68 20 64 18 88 88 Calm 30.15 1021 10 16.09344 0 0
2:35 pm 14:35 Mostly Cloudy 72 22 64 18 78 78 ENE 3 6 30.15 1021 10 16.09344 0 0
2:55 pm 14:55 Cloudy 72 22 66 19 83 83 E 6 9 30.15 1021 10 16.09344 0 0
3:15 pm 15:15 Mostly Cloudy 73 23 66 19 78 78 ESE 7 11 30.12 1020 10 16.09344 0 0
3:35 pm 15:35 Mostly Cloudy 75 24 66 19 74 74 SSE 12 19 30.12 1020 10 16.09344 0 0
4:55 pm 16:55 Mostly Cloudy 77 25 64 18 65 65 S 13 20 30.09 1019 10 16.09344 0 0
5:15 pm 17:15 Partly Cloudy 79 26 64 18 61 61 SSE 17 28 30.09 1019 10 16.09344 0 0
5:35 pm 17:35 Sunny 79 26 64 18 61 61 S 14 22 30.09 1019 10 16.09344 0 0
5:55 pm 17:55 Partly Cloudy 77 25 64 18 65 65 S 13 20 30.09 1019 10 16.09344 0 0
6:15 pm 18:15 Mostly Cloudy 77 25 64 18 65 65 S 13 20 30.09 1019 10 16.09344 0 0
6:35 pm 18:35 Partly Cloudy 77 25 64 18 65 65 S 13 20 30.06 1018 10 16.09344 0 0
6:55 pm 18:55 Sunny 77 25 64 18 65 65 SSE 8 13 30.06 1018 10 16.09344 0 0
7:15 pm 19:15 Partly Cloudy 77 25 64 18 65 65 S 7 11 30.06 1018 10 16.09344 0 0
7:35 pm 19:35 Partly Cloudy 75 24 64 18 69 69 SSE 10 17 30.06 1018 10 16.09344 0 0
7:55 pm 19:55 Sunny 75 24 64 18 69 69 SSE 9 15 30.06 1018 10 16.09344 0 0
8:15 pm 20:15 Clear 73 23 63 17 69 69 SSE 12 19 30.06 1018 10 16.09344 0 0
8:35 pm 20:35 Clear 73 23 64 18 74 74 SSE 13 20 30.06 1018 10 16.09344 0 0
8:55 pm 20:55 Clear 73 23 64 18 74 74 SSE 13 20 30.06 1018 10 16.09344 0 0
9:15 pm 21:15 Mostly Cloudy 72 22 63 17 73 73 SSE 13 20 30.09 1019 10 16.09344 0 0
9:35 pm 21:35 Mostly Cloudy 72 22 63 17 73 73 SSE 14 22 30.09 1019 10 16.09344 0 0
9:55 pm 21:55 Partly Cloudy 72 22 63 17 73 73 SSE 10 17 30.09 1019 10 16.09344 0 0
10:15 pm 22:15 Clear 72 22 63 17 73 73 SSE 12 19 30.09 1019 10 16.09344 0 0
10:35 pm 22:35 Clear 70 21 63 17 78 78 SSE 10 17 30.09 1019 10 16.09344 0 0
10:55 pm 22:55 Partly Cloudy 70 21 63 17 78 78 SSE 14 22 30.09 1019 10 16.09344 0 0
11:15 pm 23:15 Partly Cloudy 70 21 63 17 78 78 SSE 8 13 30.09 1019 10 16.09344 0 0
11:35 pm 23:35 Clear 70 21 63 17 78 78 SSE 7 11 30.09 1019 10 16.09344 0 0
11:55 pm 23:55 Clear 68 20 63 17 83 83 SSE 7 11 30.09 1019 10 16.09344 0 0

Powered by AerisWeather